User: anonymous   Login
Location: Warszawa
(52.2500°N, 21.0000°E)
Time: 06:40:35
(UTC+01:00)
Language:

Transit 2A Rocket - Orbit

View from above orbital plane
View from above orbital plane
View from above satellite
View from above satellite

Ground track
Ground track

The orbit data is extracted from the following two-line orbital elements,

1 00047U 60007C   23029.92010926  .00000461  00000-0  12521-3 0  9994
2 00047  66.6657 116.9594 0231201 321.9625  36.5343 14.42578687272604
Epoch (UTC): 29 January 2023 22:04:57
Eccentricity: 0.0231201
inclination: 66.6657°
perigee height: 585 km
apogee height: 915 km
right ascension of ascending node: 116.9594°
argument of perigee: 321.9625°
revolutions per day: 14.42578687
mean anomaly at epoch: 36.5343°
orbit number at epoch: 27260

The dashed part of the orbit path shows where the satellite is in the earth's shadow,  

DLR